Tacoma, WA

5:17 PM PDT on September 29, 2016 (GMT -0700)
McChord Air Force Base

Weather History for KTCM - January, 2014

Change the Weather History Date:

Friday, January 10, 2014

  Actual Average Record
Temperature  
Mean Temperature 50 °F -  
Max Temperature 55 °F 43 °F 55 °F (1999)
Min Temperature 44 °F 32 °F 12 °F (1993)
Degree Days  
Heating Degree Days 16    
Moisture  
Dew Point 45 °F    
Average Humidity 98    
Maximum Humidity 100    
Minimum Humidity 77    
Precipitation  
Precipitation 0.24 in - - ()
Sea Level Pressure  
Sea Level Pressure 29.97 in    
Wind  
Wind Speed 15 mph (South)    
Max Wind Speed 28 mph    
Max Gust Speed 33 mph    
Visibility 10 miles    
Events Rain    
Averages and records for this station are not official NWS values.
T = Trace of Precipitation, MM = Missing Value Source: NWS Daily Summary

Daily Weather History Graph

Daily Weather History Graph

Search for Another Location

Airport or City:

Trip Planner

Search our weather history database for the weather conditions in past years. The results will help you decide how hot, cold, wet, or windy it might be!

Date:

Astronomy

Jan. 10, 2014 Rise Set
Actual Time 7:54 AM PST 4:41 PM PST
Civil Twilight 7:19 AM PST 5:15 PM PST
Nautical Twilight 6:41 AM PST 5:54 PM PST
Astronomical Twilight 6:04 AM PST 6:30 PM PST
Moon 12:53 PM PST (1/10) 3:01 AM PST (1/10)
Length of Visible Light 9h 56m
Length of Day
8h 46m
Waxing Gibbous, 76% of the Moon is Illuminated
Jan 10
Waxing Gibbous
Jan 15
Full
Jan 23
Last Quarter
Jan 30
New
Feb 6
First Quarter

Hourly Weather History & Observations

Time (PST) Temp. Windchill Dew Point Humidity Pressure Visibility Wind Dir Wind Speed Gust Speed Precip Events Conditions
12:00 AM 44.6 °F 36.9 °F 44.6 °F 100% 29.92 in 10.0 mi SW 18.4 mph - N/A   Overcast
12:05 AM 44.6 °F 37.2 °F 44.6 °F 100% 29.92 in 10.0 mi SW 17.3 mph - N/A   Overcast
12:14 AM 44.6 °F 36.6 °F 44.6 °F 100% 29.92 in 10.0 mi SW 19.6 mph 25.3 mph N/A   Overcast
12:24 AM 44.6 °F 36.9 °F 44.6 °F 100% 29.93 in 10.0 mi SW 18.4 mph 25.3 mph N/A   Mostly Cloudy
12:29 AM 44.6 °F 37.2 °F 44.6 °F 100% 29.92 in 10.0 mi SW 17.3 mph - N/A   Overcast
12:44 AM 44.6 °F 36.9 °F 44.6 °F 100% 29.93 in 10.0 mi SW 18.4 mph 25.3 mph N/A   Overcast
12:58 AM 45.0 °F 37.1 °F 44.8 °F 99% 29.95 in 10.0 mi SSW 19.6 mph 26.5 mph 0.00 in   Overcast
1:46 AM 44.6 °F 38.1 °F 44.6 °F 100% 29.97 in 7.0 mi SSW 13.8 mph - N/A Rain Light Rain
1:48 AM 44.6 °F 37.8 °F 44.6 °F 100% 29.97 in 7.0 mi SSW 15.0 mph - N/A   Mostly Cloudy
1:58 AM 45.0 °F 38.5 °F 44.6 °F 99% 29.99 in 8.0 mi South 13.8 mph - 0.02 in   Overcast
2:13 AM 44.6 °F 37.8 °F 44.6 °F 100% 29.98 in 8.0 mi SSW 15.0 mph - N/A   Overcast
2:18 AM 44.6 °F 37.4 °F 44.6 °F 100% 29.99 in 9.0 mi SSW 16.1 mph - N/A   Overcast
2:20 AM 44.6 °F 37.2 °F 44.6 °F 100% 29.99 in 8.0 mi SSW 17.3 mph 23.0 mph N/A Rain Light Rain
2:35 AM 44.6 °F 36.4 °F 44.6 °F 100% 30.00 in 10.0 mi SSW 20.7 mph 28.8 mph N/A Rain Light Rain
2:43 AM 44.6 °F 36.6 °F 44.6 °F 100% 30.00 in 10.0 mi SSW 19.6 mph 28.8 mph N/A   Overcast
2:53 AM 44.6 °F 37.4 °F 44.6 °F 100% 30.01 in 9.0 mi SSW 16.1 mph 26.5 mph N/A   Overcast
2:55 AM 44.6 °F 37.4 °F 44.6 °F 100% 30.01 in 8.0 mi SSW 16.1 mph - N/A Rain Light Rain
2:58 AM 44.8 °F 37.7 °F 44.6 °F 99% 30.03 in 8.0 mi SSW 16.1 mph - 0.03 in Rain Light Rain
2:59 AM 44.6 °F 37.2 °F 44.6 °F 100% 30.01 in 9.0 mi SSW 17.3 mph - N/A   Overcast
3:24 AM 44.6 °F 38.1 °F 44.6 °F 100% 30.01 in 10.0 mi SSW 13.8 mph - N/A Rain Light Rain
3:39 AM 44.6 °F 38.4 °F 44.6 °F 100% 30.03 in 10.0 mi SSW 12.7 mph - N/A   Mostly Cloudy
3:45 AM 44.6 °F 37.8 °F 44.6 °F 100% 30.02 in 10.0 mi SSW 15.0 mph - N/A Rain Light Rain
3:49 AM 44.6 °F 37.8 °F 44.6 °F 100% 30.02 in 10.0 mi SSW 15.0 mph - N/A Rain Light Rain
3:58 AM 44.6 °F 37.4 °F 44.6 °F 100% 30.04 in 10.0 mi SSW 16.1 mph 21.9 mph 0.01 in Rain Light Rain
4:23 AM 44.6 °F 37.4 °F 44.6 °F 100% 30.01 in 10.0 mi SSW 16.1 mph - N/A   Scattered Clouds
4:37 AM 44.6 °F 36.9 °F 44.6 °F 100% 30.01 in 10.0 mi SSW 18.4 mph 25.3 mph N/A Rain Light Rain
4:58 AM 44.4 °F 36.1 °F 44.2 °F 99% 30.03 in 9.0 mi SSW 20.7 mph 26.5 mph 0.01 in Rain Light Rain
5:39 AM 44.6 °F 37.2 °F 44.6 °F 100% 30.03 in 10.0 mi SSW 17.3 mph 27.6 mph N/A   Overcast
5:44 AM 44.6 °F 37.8 °F 44.6 °F 100% 30.04 in 10.0 mi SSW 15.0 mph 27.6 mph N/A   Overcast
5:58 AM 44.8 °F 37.4 °F 44.4 °F 99% 30.06 in 10.0 mi SSW 17.3 mph 24.2 mph 0.00 in   Overcast
6:43 AM 44.6 °F 36.9 °F 44.6 °F 100% 30.05 in 10.0 mi SSW 18.4 mph 27.6 mph N/A   Mostly Cloudy
6:58 AM 44.8 °F 37.7 °F 44.6 °F 99% 30.06 in 10.0 mi SSW 16.1 mph 23.0 mph N/A   Mostly Cloudy
7:08 AM 44.6 °F 38.4 °F 44.6 °F 100% 30.07 in 10.0 mi SSW 12.7 mph - N/A   Overcast
7:13 AM 44.6 °F 38.1 °F 44.6 °F 100% 30.07 in 10.0 mi SSW 13.8 mph - N/A   Overcast
7:48 AM 44.6 °F 38.1 °F 44.6 °F 100% 30.08 in 10.0 mi South 13.8 mph 21.9 mph N/A   Overcast
7:58 AM 44.6 °F 37.8 °F 44.6 °F 100% 30.10 in 10.0 mi South 15.0 mph 21.9 mph N/A   Overcast
8:08 AM 44.6 °F 37.2 °F 44.6 °F 100% 30.09 in 10.0 mi South 17.3 mph 24.2 mph N/A   Overcast
8:23 AM 44.6 °F 37.4 °F 44.6 °F 100% 30.09 in 10.0 mi South 16.1 mph - N/A   Overcast
8:58 AM 44.6 °F 37.4 °F 44.4 °F 99% 30.13 in 10.0 mi South 16.1 mph - N/A   Overcast
9:58 AM 45.1 °F 38.8 °F 45.0 °F 99% 30.14 in 10.0 mi SSW 13.8 mph - N/A   Overcast
10:38 AM 46.4 °F 41.9 °F 44.6 °F 93% 30.13 in 10.0 mi SSW 9.2 mph - N/A   Mostly Cloudy
10:48 AM 46.4 °F 41.9 °F 46.4 °F 100% 30.12 in 10.0 mi SSW 9.2 mph - N/A   Mostly Cloudy
10:58 AM 46.0 °F 41.4 °F 45.9 °F 99% 30.14 in 10.0 mi South 9.2 mph - N/A   Scattered Clouds
11:58 AM 46.9 °F - 46.8 °F 99% 30.12 in 10.0 mi South 10.4 mph - N/A   Mostly Cloudy
12:03 PM 46.4 °F 41.9 °F 46.4 °F 100% 30.09 in 10.0 mi South 9.2 mph - N/A   Mostly Cloudy
12:23 PM 46.4 °F 41.9 °F 46.4 °F 100% 30.09 in 10.0 mi South 9.2 mph - N/A   Mostly Cloudy
12:58 PM 47.3 °F - 46.8 °F 98% 30.08 in 10.0 mi South 8.1 mph - N/A   Overcast
1:28 PM 48.2 °F - 46.4 °F 93% 30.04 in 10.0 mi South 8.1 mph - N/A   Overcast
1:33 PM 48.2 °F - 46.4 °F 93% 30.04 in 10.0 mi South 9.2 mph - N/A   Overcast
1:38 PM 48.2 °F - 46.4 °F 93% 30.04 in 10.0 mi South 9.2 mph - N/A   Overcast
1:58 PM 48.2 °F - 45.3 °F 90% 30.05 in 10.0 mi SSW 9.2 mph - N/A   Mostly Cloudy
2:15 PM 48.2 °F - 44.6 °F 87% 30.03 in 10.0 mi SSW 8.1 mph - N/A Rain Light Rain
2:58 PM 46.8 °F - 46.6 °F 99% 30.03 in 10.0 mi South 8.1 mph - 0.01 in Rain Light Rain
3:16 PM 46.4 °F 43.5 °F 46.4 °F 100% 30.00 in 10.0 mi SSE 5.8 mph - N/A   Mostly Cloudy
3:26 PM 46.4 °F 42.9 °F 46.4 °F 100% 30.00 in 10.0 mi SSE 6.9 mph - N/A Rain Light Rain
3:58 PM 45.7 °F 42.7 °F 45.5 °F 99% 30.00 in 9.0 mi SSE 5.8 mph - 0.01 in Rain Light Rain
4:58 PM 45.3 °F 41.6 °F 45.1 °F 99% 29.94 in 10.0 mi SE 6.9 mph - 0.03 in Rain Light Rain
5:58 PM 44.6 °F 40.2 °F 44.4 °F 99% 29.88 in 10.0 mi SE 8.1 mph - 0.04 in Rain Light Rain
6:58 PM 44.6 °F - 44.4 °F 99% 29.84 in 10.0 mi SSE 2.3 mph - 0.03 in Rain Light Rain
7:28 PM 44.6 °F 41.4 °F 44.6 °F 100% 29.80 in 10.0 mi SE 5.8 mph - N/A Rain Light Rain
7:38 PM 44.6 °F 41.4 °F 44.6 °F 100% 29.80 in 10.0 mi SE 5.8 mph - N/A Rain Light Rain
7:41 PM 44.6 °F 42.2 °F 44.6 °F 100% 29.80 in 10.0 mi SE 4.6 mph - N/A   Overcast
7:42 PM 44.6 °F 41.4 °F 44.6 °F 100% 29.79 in 10.0 mi SE 5.8 mph - N/A Rain Light Rain
7:58 PM 45.0 °F 42.6 °F 44.8 °F 99% 29.80 in 10.0 mi SSE 4.6 mph - 0.01 in Rain Light Rain
8:08 PM 44.6 °F 40.7 °F 44.6 °F 100% 29.76 in 10.0 mi SSE 6.9 mph - N/A Rain Light Rain
8:58 PM 48.9 °F - 48.7 °F 99% 29.73 in 10.0 mi South 10.4 mph - 0.02 in Rain Light Rain
9:19 PM 50.0 °F - 50.0 °F 100% 29.70 in 10.0 mi South 6.9 mph - N/A   Overcast
9:58 PM 52.0 °F - 49.8 °F 92% 29.68 in 10.0 mi South 15.0 mph 24.2 mph 0.01 in   Overcast
10:58 PM 54.1 °F - 48.9 °F 82% 29.62 in 10.0 mi South 21.9 mph 28.8 mph 0.01 in   Overcast
11:45 PM 55.4 °F - 48.2 °F 77% 29.57 in 10.0 mi South 27.6 mph 33.4 mph N/A Rain Light Rain
11:58 PM 55.6 °F - 48.4 °F 77% 29.58 in 10.0 mi South 19.6 mph 33.4 mph 0.00 in Rain Light Rain